Year,Month,Day,Hour,Minute,Value (Times are PST for temperature in C)
2017,08,13,00,28,13.40
2017,08,13,00,29,13.30
2017,08,13,00,30,13.30
2017,08,13,00,31,13.30
2017,08,13,00,32,13.30
2017,08,13,00,33,13.30
2017,08,13,00,34,13.30
2017,08,13,01,27,13.50
2017,08,13,01,28,13.50
2017,08,13,01,29,13.50
2017,08,13,02,27,14.00
2017,08,13,02,28,14.00
2017,08,13,02,29,14.00
2017,08,13,03,27,13.50
2017,08,13,03,28,13.50
2017,08,13,03,29,13.50
2017,08,13,04,27,14.20
2017,08,13,04,28,14.20
2017,08,13,04,29,14.20
2017,08,13,04,30,14.20
2017,08,13,04,31,14.20
2017,08,13,04,32,14.20
2017,08,13,04,33,14.20
2017,08,13,04,34,14.20
2017,08,13,05,27,13.40
2017,08,13,05,28,13.40
2017,08,13,05,29,13.40
2017,08,13,06,27,13.40
2017,08,13,06,28,13.40
2017,08,13,06,29,13.30
2017,08,13,07,27,13.70
2017,08,13,07,28,13.70
2017,08,13,07,29,13.70
2017,08,13,08,27,14.80
2017,08,13,08,28,14.90
2017,08,13,08,29,14.90
2017,08,13,09,27,16.90
2017,08,13,09,28,16.90
2017,08,13,09,29,17.00
2017,08,13,10,27,18.20
2017,08,13,10,28,18.30
2017,08,13,10,29,18.30
2017,08,13,11,27,18.70
2017,08,13,11,28,18.70
2017,08,13,11,29,18.80
2017,08,13,12,27,20.10
2017,08,13,12,28,20.10
2017,08,13,12,29,20.10
2017,08,13,12,30,20.10
2017,08,13,12,31,20.20
2017,08,13,12,32,20.20
2017,08,13,12,33,20.20
2017,08,13,12,34,20.20
2017,08,13,13,27,20.80
2017,08,13,13,28,20.80
2017,08,13,13,29,20.70
2017,08,13,14,27,20.80
2017,08,13,14,28,20.80
2017,08,13,14,29,20.80
2017,08,13,15,27,20.70
2017,08,13,15,28,20.70
2017,08,13,15,29,20.60
2017,08,13,16,27,20.40
2017,08,13,16,28,20.50
2017,08,13,16,29,20.50
2017,08,13,16,30,20.50
2017,08,13,16,31,20.50
2017,08,13,16,32,20.60
2017,08,13,16,33,20.60
2017,08,13,16,34,20.60
2017,08,13,17,27,19.60
2017,08,13,17,28,19.60
2017,08,13,17,29,19.60
2017,08,13,17,30,19.60
2017,08,13,17,31,19.60
2017,08,13,17,32,19.60
2017,08,13,17,33,19.60
2017,08,13,17,34,19.60
2017,08,13,18,27,18.90
2017,08,13,18,28,18.90
2017,08,13,18,29,18.90
2017,08,13,18,30,18.90
2017,08,13,18,31,18.90
2017,08,13,18,32,18.90
2017,08,13,18,33,18.90
2017,08,13,18,34,18.90
2017,08,13,19,27,17.50
2017,08,13,19,28,17.50
2017,08,13,19,29,17.50
2017,08,13,20,27,15.80
2017,08,13,20,28,15.80
2017,08,13,20,29,15.80
2017,08,13,21,27,15.20
2017,08,13,21,28,15.20
2017,08,13,21,29,15.10
2017,08,13,22,27,14.60
2017,08,13,22,28,14.60
2017,08,13,22,29,14.60
2017,08,13,23,27,14.10
2017,08,13,23,28,14.10
2017,08,13,23,29,14.10
2017,08,13,23,30,14.10
2017,08,13,23,31,14.10
2017,08,13,23,32,14.10
2017,08,13,23,33,14.00
2017,08,13,23,34,14.00
